Regional Weather Roundup
Issued by NWS

Home | Current Version | Previous Version | Text Only | Print | Product List | Glossary On
Versions: 1 2 3 4 5 6 7 8 9 10 11 12 13 14 15 16 17 18 19 20 21 22 23 24 25 26 27 28 29 30 31 32 33 34 35 36 37 38 39 40 41 42 43 44 45 46 47 48 49 50
315
ASUS44 KOUN 101010
RWROK

WEATHER ROUNDUP FOR OKLAHOMA
NATIONAL WEATHER SERVICE NORMAN OK
400 AM CST SAT DEC 10 2016

NOTE: "FAIR" INDICATES FEW OR NO CLOUDS BELOW 12,000 FEET WITH NO
      SIGNIFICANT WEATHER AND/OR OBSTRUCTIONS TO VISIBILITY.

OKZ001>007-009>012-014-015-017-101100-
NORTHWEST OKLAHOMA AND THE PANHANDLE

CITY           SKY/WX    TMP DP  RH WIND       PRES   REMARKS
GAGE           CLOUDY    26  17  68 S13G21    30.26F WCI  15
GUYMON         CLOUDY    20  19  96 S5        30.15F WCI  13
ENID/WOODRING  CLOUDY    32  23  69 SE7       30.37F WCI  26
$$

OKZ016-021>023-033>039-044-045-101100-
SOUTHWEST OKLAHOMA

CITY           SKY/WX    TMP DP  RH WIND       PRES   REMARKS
LAWTON/REGL    CLOUDY    33  22  63 E5        30.42S WCI  29
LAWTON/FT SILL CLOUDY    33  22  64 SE7       30.38F WCI  27
FREDERICK      CLOUDY    28  22  78 E7        30.36F WCI  21
CLINTON        CLOUDY    27  17  66 S13       30.33F WCI  16
HOBART         CLOUDY    31  20  63 S16       30.35F WCI  20
ALTUS AFB      CLOUDY    29  20  69 SE12      30.35F WCI  19
$$

OKZ018>020-024>031-101100-
CENTRAL OKLAHOMA

CITY           SKY/WX    TMP DP  RH WIND       PRES   REMARKS
OKLAHOMA CITY  CLOUDY    34  19  54 S9        30.41S WCI  27
OKC/WILEY POST CLOUDY    34  18  52 S13       30.41S WCI  25
OKC/TINKER AFB CLOUDY    34  18  52 S10       30.40S WCI  26
STILLWATER     CLOUDY    34  17  50 SE8       30.42F WCI  27
GUTHRIE        CLOUDY    34  18  52 SE7       30.41F WCI  28
$$

OKZ008-013-054>072-101100-
NORTHEAST OKLAHOMA

CITY           SKY/WX    TMP DP  RH WIND       PRES   REMARKS
TULSA          CLOUDY    36  18  48 S8        30.47F WCI  30
TULSA/JONES    CLOUDY    36  18  48 SE3       30.48F
PONCA CITY     CLOUDY    31  17  56 SE9       30.41F WCI  23
BARTLESVILLE   CLOUDY    32  19  58 SE5       30.48F WCI  27
MUSKOGEE       CLOUDY    35  22  58 SE5       30.52S WCI  31
$$

OKZ032-040>043-046>053-073>077-101100-
SOUTH CENTRAL/SOUTHEAST OKLAHOMA

CITY           SKY/WX    TMP DP  RH WIND       PRES   REMARKS
ARDMORE/DWNTWN CLOUDY    36  23  60 SE6       30.46S WCI  31
MCALESTER      CLOUDY    37  18  46 VRB5      30.49F WCI  33
$$





USA.gov is the U.S. government's official web portal to all federal, state and local government web resources and services.